Grand Canyon, AZ

11:33 AM MST on October 22, 2017 (GMT -0700)
Grand Canyon National Park

Weather History for KGCN - December, 2013

Change the Weather History Date:

Tuesday, December 10, 2013

  Actual Average Record
Temperature  
Mean Temperature 20 °F -  
Max Temperature 43 °F 42 °F 64 °F (1981)
Min Temperature -4 °F 13 °F -4 °F (2013)
Degree Days  
Heating Degree Days 46    
Moisture  
Dew Point -2 °F    
Average Humidity 49    
Maximum Humidity 80    
Minimum Humidity 16    
Precipitation  
Precipitation 0.00 in - - ()
Sea Level Pressure  
Sea Level Pressure 30.42 in    
Wind  
Wind Speed 4 mph (ENE)    
Max Wind Speed 7 mph    
Max Gust Speed -    
Visibility 10 miles    
Events      
Averages and records for this station are not official NWS values.
T = Trace of Precipitation, MM = Missing Value Source: NWS Daily Summary

Daily Weather History Graph

Daily Weather History Graph

Search for Another Location

Airport or City:

Trip Planner

Search our weather history database for the weather conditions in past years. The results will help you decide how hot, cold, wet, or windy it might be!

Date:

Astronomy

Dec. 10, 2013 Rise Set
Actual Time 7:28 AM MST 5:14 PM MST
Civil Twilight 6:59 AM MST 5:43 PM MST
Nautical Twilight 6:27 AM MST 6:15 PM MST
Astronomical Twilight 5:56 AM MST 6:46 PM MST
Moon 1:08 PM MST (12/10) 1:01 AM MST (12/10)
Length of Visible Light 10h 43m
Length of Day
9h 46m
Waxing Gibbous, 62% of the Moon is Illuminated
Dec 10
Waxing Gibbous
Dec 17
Full
Dec 25
Last Quarter
Jan 1
New
Jan 7
First Quarter

Hourly Weather History & Observations

Time (MST) Temp. Windchill Dew Point Humidity Pressure Visibility Wind Dir Wind Speed Gust Speed Precip Events Conditions
12:54 AM -4.0 °F -14.6 °F -11.0 °F 72% 30.57 in 10.0 mi ENE 4.6 mph - N/A   Clear
1:54 AM -2.9 °F -11.2 °F -11.9 °F 65% 30.54 in 10.0 mi Variable 3.5 mph - N/A   Clear
2:54 AM -2.0 °F - -11.9 °F 63% 30.52 in 10.0 mi Calm Calm - N/A   Clear
3:54 AM 10.9 °F 2.9 °F -7.1 °F 44% 30.44 in 10.0 mi NE 4.6 mph - N/A   Clear
4:54 AM 14.0 °F 3.9 °F -8.0 °F 37% 30.43 in 10.0 mi NE 6.9 mph - N/A   Clear
5:54 AM 8.1 °F - -9.0 °F 46% 30.48 in 10.0 mi Calm Calm - N/A   Clear
6:54 AM -2.0 °F - -11.0 °F 66% 30.55 in 10.0 mi Calm Calm - N/A   Clear
7:54 AM 1.9 °F -7.6 °F -9.0 °F 60% 30.56 in 10.0 mi Variable 4.6 mph - N/A   Clear
8:54 AM 21.0 °F 13.4 °F -9.9 °F 25% 30.51 in 10.0 mi ENE 5.8 mph - N/A   Clear
9:54 AM 28.0 °F 20.8 °F -5.1 °F 24% 30.51 in 10.0 mi ENE 6.9 mph - N/A   Clear
10:54 AM 35.1 °F - -7.1 °F 16% 30.45 in 10.0 mi Calm Calm - N/A   Clear
11:54 AM 37.9 °F 34.4 °F -2.0 °F 18% 30.42 in 10.0 mi Variable 4.6 mph - N/A   Clear
12:54 PM 41.0 °F 39.0 °F -0.9 °F 17% 30.36 in 10.0 mi SW 3.5 mph - N/A   Clear
1:54 PM 41.0 °F 37.1 °F 3.0 °F 21% 30.34 in 10.0 mi SSW 5.8 mph - N/A   Clear
2:54 PM 43.0 °F - 1.0 °F 17% 30.30 in 10.0 mi Calm Calm - N/A   Clear
3:54 PM 41.0 °F 39.0 °F 6.1 °F 24% 30.25 in 10.0 mi Variable 3.5 mph - N/A   Clear
4:54 PM 32.0 °F 26.4 °F 12.0 °F 44% 30.27 in 10.0 mi SSW 5.8 mph - N/A   Clear
5:54 PM 19.9 °F 13.4 °F 8.1 °F 60% 30.36 in 10.0 mi NE 4.6 mph - N/A   Clear
6:54 PM 15.1 °F 7.7 °F 7.0 °F 70% 30.44 in 10.0 mi NE 4.6 mph - N/A   Clear
7:54 PM 12.9 °F 5.2 °F 6.1 °F 74% 30.43 in 10.0 mi NNE 4.6 mph - N/A   Clear
8:54 PM 9.0 °F 2.4 °F 3.0 °F 77% 30.38 in 10.0 mi NE 3.5 mph - N/A   Clear
9:54 PM 8.1 °F - 1.9 °F 76% 30.36 in 10.0 mi Calm Calm - N/A   Clear
10:54 PM 7.0 °F -1.7 °F 1.9 °F 80% 30.34 in 10.0 mi NE 4.6 mph - N/A   Clear
11:54 PM 5.0 °F -4.1 °F -0.0 °F 80% 30.33 in 10.0 mi NE 4.6 mph - N/A   Clear